Wind_Speed
36 36 35 35 35 35 35 35 35 34 33 32 32 31 31 30 30 30 29 29 29 29 28 28 27 27 26 25 25 24 24 23 22 22 21 21 21 21 21 20 20 20 20
38 38 38 37 37 37 37 37 36 36 36 35 34 34 33 32 32 32 32 31 31 31 31 30 29 29 28 27 27 27 26 25 24 24 24 23 23 23 23 22 22 21 21
40 40 40 40 39 39 39 39 38 38 38 37 36 36 36 35 35 35 35 34 33 33 32 32 31 31 30 30 30 29 29 28 27 26 25 25 25 25 25 24 24 23 23
43 42 42 42 42 41 41 41 40 40 40 39 39 38 38 38 38 37 37 36 36 35 35 35 34 34 33 33 32 31 31 30 29 28 27 26 26 27 26 26 25 25 24
45 44 44 43 43 43 43 43 42 42 42 41 41 40 40 39 39 39 38 38 37 37 36 37 36 36 35 35 34 34 34 33 32 31 30 29 28 27 28 28 27 27 26
47 47 46 46 45 45 45 44 44 44 44 44 43 43 42 42 41 40 40 40 39 38 38 38 38 38 38 37 37 36 36 35 35 33 32 32 31 30 29 29 29 29 28
50 49 49 49 47 47 47 46 46 46 46 45 45 45 45 44 43 43 42 42 42 41 40 41 41 40 40 40 39 39 38 37 37 36 35 34 33 33 32 31 31 30 30
52 51 51 51 50 49 49 48 48 48 48 48 48 48 47 46 45 45 44 44 44 44 44 44 43 42 41 41 41 41 41 40 39 38 38 37 36 35 35 34 34 32 31
54 54 53 53 52 51 51 51 50 51 51 51 50 50 49 49 48 47 47 47 47 47 47 46 46 45 44 44 44 43 43 42 42 41 40 39 38 38 37 36 36 34 33
56 55 55 55 54 54 54 53 53 53 52 52 52 52 52 51 51 50 49 49 49 49 49 49 48 47 47 47 46 46 45 44 44 43 42 41 41 40 40 39 38 37 35
57 57 57 57 57 56 56 56 55 55 55 55 55 54 54 54 53 53 51 51 50 50 51 51 51 50 49 49 49 49 48 47 47 46 45 44 43 43 42 42 41 40 39
58 58 59 59 59 59 58 58 57 58 57 57 57 57 56 56 55 54 53 52 52 51 52 52 53 53 52 52 51 51 51 50 50 49 48 47 46 45 45 45 44 43 43
58 59 60 60 60 60 61 61 60 60 60 59 58 58 57 57 56 55 55 54 54 53 53 53 53 54 55 54 53 52 52 52 51 51 50 50 49 49 48 47 47 46 46
58 59 60 60 61 62 62 63 62 62 61 60 60 59 58 58 57 56 56 56 55 54 54 54 55 55 56 56 56 55 55 55 54 54 53 53 52 51 51 50 49 48 49
58 60 60 61 61 62 63 63 63 63 62 62 61 60 60 60 59 58 58 57 57 56 55 55 56 57 57 57 57 57 57 57 57 57 56 55 54 54 54 53 52 51 51
58 59 60 61 61 62 63 64 64 64 63 63 62 62 62 61 61 60 60 59 58 58 57 56 56 58 58 58 59 59 59 59 59 58 58 58 57 57 56 56 55 55 54
58 58 59 60 61 62 63 64 64 64 64 63 62 62 62 61 61 61 61 61 60 60 60 58 59 59 59 60 60 60 61 61 60 60 60 60 60 60 59 59 59 58 57
57 57 58 59 59 60 61 62 63 64 64 63 63 62 62 62 62 61 62 62 62 62 62 60 60 61 61 60 60 60 61 63 62 61 61 61 61 61 61 61 61 61 60
56 56 56 57 58 59 59 60 61 61 62 63 64 63 63 63 63 63 63 63 64 63 63 62 62 62 61 61 61 61 61 62 63 62 62 62 62 61 61 61 61 61 62
54 54 54 55 56 57 58 59 59 60 61 62 63 63 63 63 64 64 64 64 65 64 64 64 63 63 62 62 62 62 61 61 62 62 62 62 62 62 61 62 62 62 62
54 54 54 54 55 56 56 57 58 60 60 60 61 62 63 64 64 65 65 65 65 65 64 65 64 64 63 63 62 62 61 61 61 61 61 61 61 61 61 62 61 61 62
54 55 55 55 55 56 56 56 57 58 59 60 60 61 62 62 62 63 63 64 64 64 64 64 64 64 63 63 63 62 62 61 60 60 60 59 60 60 61 61 61 61 61
53 54 55 55 55 56 56 56 56 57 57 58 59 60 61 61 62 61 61 61 62 63 63 63 63 63 63 63 63 62 62 61 60 60 60 59 60 60 60 61 60 60 61
51 52 53 54 55 55 56 56 56 56 56 56 57 58 58 59 60 60 59 60 60 60 61 62 62 61 62 62 62 62 61 60 60 60 61 60 60 60 59 60 60 60 61
48 50 51 51 52 53 54 54 54 55 54 55 55 56 56 57 57 58 59 59 58 58 59 59 60 60 60 61 61 61 61 61 60 59 61 61 61 60 60 59 60 61 61
46 47 47 48 49 50 50 51 52 53 53 53 53 54 55 55 55 56 57 58 57 56 57 57 58 58 59 60 60 60 60 60 60 60 61 62 63 62 60 61 61 62 63
Wind_Direction
259 259 260 260 260 260 260 260 260 260 260 262 262 262 263 263 261 261 261 259 258 258 257 256 256 255 255 255 256 257 258 259 259 259 259 259 257 256 256 255 254 253 253
260 260 261 260 260 260 260 261 261 260 261 262 262 262 262 263 262 260 261 260 258 257 256 256 255 255 255 255 255 256 257 258 258 259 260 259 257 256 255 252 252 252 253
260 261 261 261 260 260 260 261 261 261 262 262 263 263 263 263 262 261 260 259 258 257 256 256 256 255 255 255 255 255 256 256 257 258 259 259 258 256 254 251 251 251 252
260 261 261 261 260 260 260 261 261 261 261 262 262 263 263 264 263 261 259 258 257 256 255 256 256 255 256 255 254 255 255 255 255 256 257 258 257 255 252 251 250 251 252
260 260 261 261 260 260 261 261 261 262 262 261 261 262 262 263 263 262 260 258 256 255 256 256 256 256 255 255 254 254 254 254 254 255 256 257 257 254 252 252 251 251 251
260 260 260 260 260 260 261 262 262 262 262 262 262 262 262 261 262 262 261 259 256 256 257 256 255 255 255 255 254 253 254 254 254 255 255 256 256 253 251 252 252 252 252
260 260 260 260 260 260 261 261 262 262 262 262 262 262 262 261 261 261 261 260 257 255 256 254 254 255 255 255 254 253 253 254 254 255 256 256 255 253 251 253 252 253 253
259 259 259 259 259 260 261 261 261 261 263 262 262 262 261 260 260 260 260 259 258 256 254 254 255 255 255 255 254 253 253 254 255 255 255 255 254 253 252 254 253 252 253
260 260 259 259 260 260 260 260 261 261 262 263 263 263 261 259 259 259 259 259 258 256 255 254 254 254 254 254 254 253 254 254 255 255 255 255 254 253 253 254 253 252 252
260 260 259 259 259 259 260 260 260 260 261 262 263 263 262 261 259 258 258 258 258 257 256 254 254 253 253 253 253 252 253 253 254 254 254 255 254 253 253 253 253 252 252
261 260 260 259 259 260 260 260 260 260 260 261 262 262 262 262 261 259 258 257 257 257 257 255 254 254 254 253 252 252 252 253 253 253 253 254 254 253 253 253 254 253 253
261 261 260 261 260 259 260 260 260 260 260 261 261 262 262 262 261 260 258 256 256 256 256 255 254 253 253 253 253 252 252 252 252 253 253 253 253 253 253 253 253 253 253
262 261 261 261 261 260 260 260 260 261 261 261 261 261 261 261 261 260 259 257 256 256 255 255 254 254 253 253 253 253 253 252 252 252 253 253 253 253 253 253 253 253 253
261 261 261 262 261 260 260 260 260 260 261 261 261 260 260 260 260 260 259 257 256 255 255 255 255 255 254 254 253 253 253 253 252 253 253 253 252 253 253 253 253 253 253
261 262 262 261 261 261 261 260 260 260 260 260 260 260 259 259 259 259 259 258 257 255 254 255 255 255 254 254 254 254 254 254 254 254 254 253 253 253 252 252 253 253 252
263 263 262 261 261 260 260 260 260 260 260 259 259 259 259 259 259 257 257 257 257 256 255 255 256 255 255 255 255 255 254 254 254 254 254 254 254 253 252 252 252 253 252
264 264 262 262 262 261 261 260 260 260 259 259 259 259 259 258 258 257 256 257 257 257 257 255 256 256 256 255 255 255 256 255 255 254 254 255 254 254 253 253 252 252 252
265 265 264 263 263 263 262 261 260 259 259 258 258 258 258 257 257 257 257 257 258 258 257 256 255 255 255 255 255 255 256 256 256 255 255 256 255 254 253 253 252 252 251
265 266 265 264 264 264 264 262 261 260 259 258 258 258 257 257 257 258 258 258 258 258 257 256 255 255 255 255 255 255 255 255 256 256 256 256 255 254 254 253 252 252 252
266 266 265 265 265 264 264 263 262 260 260 259 258 258 258 258 258 258 258 258 258 258 257 256 255 255 255 255 255 255 255 255 256 256 255 255 254 254 254 253 253 253 252
266 266 266 266 265 265 265 264 263 261 261 260 259 258 258 258 258 257 257 257 257 257 256 256 255 255 255 255 255 254 254 255 255 254 254 254 254 253 252 253 253 253 253
267 267 266 266 266 266 265 265 264 263 262 261 260 259 259 259 258 258 257 257 256 256 256 256 255 255 255 255 254 254 254 254 253 253 254 253 253 252 252 252 252 252 253
268 267 267 267 267 267 266 265 265 263 262 262 262 261 260 259 258 257 257 257 257 256 256 256 256 255 255 254 254 255 254 253 253 252 253 253 252 252 252 251 251 251 252
269 269 268 268 268 267 266 266 265 264 263 263 262 262 260 259 258 258 257 257 257 256 256 256 256 256 255 254 254 254 253 253 252 252 253 253 251 251 251 251 251 252 252
271 271 270 270 269 268 267 267 266 265 264 263 263 261 260 259 258 258 258 257 257 256 257 257 256 255 254 254 253 253 252 252 252 252 253 254 252 252 251 250 251 251 252
273 272 270 270 270 269 268 267 266 266 264 263 262 261 261 260 259 259 259 257 256 256 256 256 256 255 254 253 253 253 253 253 253 253 254 254 254 253 252 252 253 252 252
Height
5770 5771 5773 5774 5776 5777 5778 5780 5781 5782 5783 5785 5786 5787 5788 5789 5790 5790 5791 5792 5794 5796 5798 5800 5802 5804 5805 5807 5808 5809 5811 5812 5813 5814 5815 5815 5816 5817 5818 5819 5821 5822 5823
5762 5763 5765 5766 5767 5769 5770 5771 5773 5774 5775 5777 5778 5779 5780 5781 5782 5783 5784 5785 5787 5789 5791 5793 5795 5797 5799 5801 5802 5804 5805 5806 5807 5808 5809 5810 5811 5812 5813 5814 5815 5817 5818
5753 5754 5756 5757 5759 5760 5761 5763 5764 5766 5767 5768 5770 5771 5772 5773 5774 5775 5777 5778 5780 5781 5784 5786 5788 5790 5792 5794 5795 5797 5798 5800 5801 5802 5803 5804 5805 5806 5807 5808 5810 5811 5813
5743 5745 5746 5748 5749 5751 5752 5753 5755 5756 5758 5759 5761 5762 5763 5764 5766 5767 5768 5770 5772 5774 5776 5778 5780 5782 5784 5786 5788 5789 5791 5793 5794 5796 5797 5798 5799 5800 5801 5802 5804 5805 5807
5733 5734 5736 5737 5739 5741 5742 5744 5745 5746 5748 5750 5751 5753 5754 5755 5756 5758 5760 5761 5763 5765 5767 5770 5772 5774 5776 5778 5780 5781 5783 5785 5787 5788 5790 5791 5792 5793 5794 5796 5797 5799 5801
5722 5723 5725 5727 5728 5730 5731 5733 5734 5736 5738 5739 5741 5742 5744 5745 5747 5749 5750 5752 5754 5756 5758 5760 5763 5765 5767 5769 5771 5773 5774 5776 5778 5780 5782 5783 5784 5786 5787 5789 5790 5792 5794
5710 5712 5713 5715 5717 5718 5720 5722 5723 5725 5727 5728 5730 5732 5733 5735 5737 5738 5740 5742 5744 5746 5748 5750 5753 5755 5757 5760 5762 5764 5765 5767 5769 5771 5773 5775 5776 5778 5780 5782 5783 5785 5787
5697 5699 5701 5703 5705 5706 5708 5710 5711 5713 5715 5716 5718 5720 5722 5725 5726 5727 5729 5731 5733 5735 5737 5740 5742 5744 5747 5749 5751 5754 5756 5758 5760 5762 5764 5766 5768 5770 5772 5773 5775 5777 5779
5683 5685 5687 5689 5691 5693 5695 5697 5699 5700 5702 5704 5705 5707 5709 5712 5714 5716 5717 5719 5721 5723 5726 5728 5730 5733 5735 5738 5740 5743 5745 5748 5750 5752 5754 5756 5758 5760 5763 5765 5767 5769 5771
5669 5671 5673 5675 5677 5679 5681 5683 5685 5687 5689 5690 5692 5693 5696 5698 5701 5704 5705 5706 5708 5710 5713 5715 5718 5721 5724 5726 5729 5732 5734 5737 5739 5742 5744 5746 5748 5751 5753 5755 5757 5760 5762
5653 5656 5658 5660 5662 5664 5666 5669 5671 5673 5674 5676 5678 5679 5681 5683 5686 5689 5692 5694 5695 5697 5699 5702 5705 5708 5711 5713 5717 5719 5722 5725 5728 5730 5733 5735 5738 5740 5743 5745 5747 5750 5752
5638 5640 5642 5644 5646 5649 5651 5653 5655 5657 5659 5661 5663 5664 5666 5668 5670 5673 5676 5679 5682 5683 5685 5688 5690 5693 5696 5700 5703 5706 5709 5712 5715 5718 5721 5723 5726 5728 5731 5734 5736 5739 5741
5622 5624 5626 5628 5630 5632 5634 5636 5639 5641 5643 5645 5647 5649 5651 5652 5655 5657 5660 5663 5666 5669 5671 5674 5676 5679 5682 5685 5688 5692 5695 5698 5702 5705 5707 5710 5713 5716 5719 5722 5724 5727 5729
5606 5607 5609 5611 5613 5615 5617 5619 5622 5624 5626 5628 5630 5632 5635 5637 5639 5641 5644 5647 5650 5654 5656 5659 5661 5664 5667 5670 5673 5677 5680 5683 5687 5690 5693 5696 5699 5702 5705 5708 5711 5714 5717
5589 5591 5592 5594 5595 5597 5599 5602 5604 5607 5609 5612 5614 5616 5618 5620 5622 5625 5627 5630 5634 5637 5642 5644 5646 5648 5651 5654 5658 5661 5665 5668 5671 5675 5678 5681 5684 5688 5691 5694 5697 5700 5703
5573 5574 5575 5577 5578 5580 5582 5584 5586 5589 5591 5594 5596 5598 5601 5603 5605 5608 5610 5613 5616 5620 5625 5629 5630 5632 5634 5638 5641 5644 5648 5651 5655 5658 5662 5665 5668 5672 5675 5678 5682 5685 5689
5556 5557 5558 5560 5561 5562 5564 5566 5568 5570 5573 5575 5578 5580 5583 5585 5588 5590 5593 5596 5599 5602 5607 5612 5614 5615 5618 5621 5624 5627 5630 5634 5637 5641 5644 5648 5651 5654 5658 5662 5666 5669 5673
5540 5541 5542 5543 5544 5545 5546 5548 5550 5552 5555 5557 5559 5562 5565 5567 5570 5572 5575 5578 5581 5584 5588 5593 5596 5598 5601 5603 5606 5609 5612 5616 5619 5623 5626 5630 5633 5637 5641 5645 5649 5652 5656
5524 5524 5525 5526 5527 5528 5529 5530 5532 5534 5536 5538 5541 5543 5546 5548 5551 5553 5556 5559 5562 5565 5568 5573 5577 5580 5583 5585 5588 5591 5595 5598 5601 5605 5608 5612 5615 5619 5623 5627 5631 5635 5639
5508 5508 5509 5509 5510 5511 5511 5512 5514 5515 5517 5520 5522 5524 5527 5529 5531 5534 5537 5539 5542 5545 5549 5553 5557 5561 5564 5567 5569 5573 5577 5580 5583 5587 5590 5594 5597 5601 5606 5610 5614 5618 5622
5491 5492 5493 5493 5493 5494 5495 5495 5496 5498 5499 5501 5503 5506 5507 5509 5512 5514 5517 5519 5522 5526 5529 5533 5538 5541 5545 5548 5551 5554 5558 5561 5565 5568 5572 5576 5580 5584 5588 5591 5595 5599 5603
5475 5475 5476 5476 5477 5477 5478 5478 5479 5480 5481 5483 5485 5487 5489 5490 5492 5494 5497 5500 5503 5506 5510 5514 5518 5522 5526 5529 5532 5535 5539 5544 5549 5553 5555 5559 5562 5566 5570 5574 5578 5582 5585
5458 5458 5459 5459 5460 5460 5460 5461 5461 5462 5464 5465 5467 5468 5470 5471 5473 5476 5478 5481 5484 5487 5491 5495 5499 5503 5507 5511 5515 5519 5521 5525 5530 5534 5537 5542 5545 5548 5553 5557 5560 5564 5568
5442 5442 5442 5442 5443 5443 5443 5444 5444 5445 5447 5448 5449 5450 5452 5453 5455 5457 5460 5463 5466 5469 5473 5476 5481 5485 5487 5491 5495 5499 5503 5508 5513 5516 5519 5524 5528 5531 5535 5539 5543 5546 5550
5427 5426 5426 5426 5426 5427 5427 5427 5427 5429 5430 5431 5432 5433 5435 5437 5439 5440 5443 5446 5449 5452 5454 5457 5461 5465 5468 5472 5476 5480 5485 5489 5494 5498 5501 5505 5510 5514 5518 5522 5526 5529 5532
5412 5411 5411 5411 5411 5411 5411 5411 5411 5412 5414 5416 5417 5417 5419 5420 5421 5422 5424 5427 5431 5435 5437 5440 5443 5446 5450 5454 5458 5462 5466 5471 5476 5480 5483 5487 5491 5495 5501 5505 5508 5511 5514